CW4588 Weather Reports


time (UTC)temp
C
wind
direction
speed
KPH
gust
KPH
rain 1hr
cm
rain 24hr
cm
rain mn
cm
humidity
%
barometer
mb
20260506092536 10 202 8.0 0.0 0.00 0.00 0.00 43 1006.1
20260506092026 10 234 8.0 0.0 0.00 0.00 0.00 45 1006.1
20260506091526 10 170 6.4 0.0 0.00 0.00 0.00 43 1005.9
20260506091042 10 211 6.4 0.0 0.00 0.00 0.00 43 1005.9
20260506090527 9 262 8.0 0.0 0.00 0.00 0.00 45 1005.9
20260506090035 9 231 8.0 0.0 0.00 0.00 0.00 43 1005.9
20260506085553 9 262 8.0 0.0 0.00 0.00 0.00 45 1005.9
20260506085038 9 234 8.0 0.0 0.00 0.00 0.00 42 1005.9
20260506084557 9 199 6.4 0.0 0.00 0.00 0.00 44 1005.9
20260506084020 9 264 6.4 0.0 0.00 0.00 0.00 46 1005.7
20260506083526 9 254 8.0 0.0 0.00 0.00 0.00 43 1005.7
20260506083038 9 180 8.0 0.0 0.00 0.00 0.00 43 1005.7
20260506082526 9 257 6.4 0.0 0.00 0.00 0.00 44 1005.7
20260506082029 9 190 6.4 0.0 0.00 0.00 0.00 49 1005.7
20260506081543 8 227 6.4 0.0 0.00 0.00 0.00 44 1005.7
20260506081048 8 213 6.4 0.0 0.00 0.00 0.00 45 1005.6
20260506080607 8 233 8.0 0.0 0.00 0.00 0.00 47 1005.6
20260506073528 8 258 8.0 0.0 0.00 0.00 0.00 50 1005.4
20260506073029 8 259 8.0 0.0 0.00 0.00 0.00 48 1005.1
20260506072526 8 244 4.8 0.0 0.00 0.00 0.00 52 1005.1
20260506072036 8 238 4.8 0.0 0.00 0.00 0.00 50 1005.1
20260506071541 8 228 6.4 0.0 0.00 0.00 0.00 48 1005.1
20260506071032 8 163 6.4 0.0 0.00 0.00 0.00 48 1005.0
20260506070520 8 175 8.0 0.0 0.00 0.00 0.00 52 1005.0
20260506062033 7 206 6.4 0.0 0.00 0.00 0.00 58 1004.6
20260506061523 7 182 4.8 0.0 0.00 0.00 0.00 59 1004.5
20260506061030 6 223 6.4 0.0 0.00 0.00 0.00 59 1004.5
20260506060520 6 199 6.4 0.0 0.00 0.00 0.00 59 1004.5
20260506051052 5 197 4.8 0.0 0.00 0.00 0.00 68 1004.1
20260506050543 5 196 4.8 0.0 0.00 0.00 0.00 68 1004.1
20260506045021 3 189 1.6 0.0 0.00 0.00 0.00 71 1004.0
20260506044527 3 199 3.2 0.0 0.00 0.00 0.00 72 1004.0
20260506044041 3 182 3.2 0.0 0.00 0.00 0.00 72 1004.0
20260506043527 3 189 3.2 0.0 0.00 0.00 0.00 74 1004.0
20260506043044 2 223 3.2 0.0 0.00 0.00 0.00 75 1003.9
20260506042520 2 207 3.2 0.0 0.00 0.00 0.00 76 1003.9
20260506042036 2 196 3.2 0.0 0.00 0.00 0.00 76 1003.9
20260506041559 1 189 4.8 0.0 0.00 0.00 0.00 78 1003.9
20260506041023 1 204 4.8 0.0 0.00 0.00 0.00 77 1003.7
20260506040539 1 192 4.8 0.0 0.00 0.00 0.00 78 1003.7
20260506040022 1 193 4.8 0.0 0.00 0.00 0.00 78 1003.5
20260506035539 1 196 4.8 0.0 0.00 0.00 0.00 79 1003.5
20260506035042 1 203 3.2 0.0 0.00 0.00 0.00 80 1003.5
20260506034534 1 176 3.2 0.0 0.00 0.00 0.00 80 1003.5
20260506034043 0 182 3.2 0.0 0.00 0.00 0.00 81 1003.4
20260506033527 0 202 4.8 0.0 0.00 0.00 0.00 81 1003.4
20260506033024 0 207 3.2 0.0 0.00 0.00 0.00 82 1003.3
20260506032524 0 193 3.2 0.0 0.00 0.00 0.00 82 1003.3
20260506032041 0 202 3.2 0.0 0.00 0.00 0.00 83 1003.3
20260506031527 0 203 3.2 0.0 0.00 0.00 0.00 83 1003.0
20260506031033 0 199 3.2 0.0 0.00 0.00 0.00 84 1003.0
20260506030553 0 197 3.2 0.0 0.00 0.00 0.00 84 1003.0
20260506030038 0 200 3.2 0.0 0.00 0.00 0.00 84 1003.0
20260506025523 0 200 3.2 0.0 0.00 0.00 0.00 84 1003.0
20260506025041 0 200 3.2 0.0 0.00 0.00 0.00 85 1003.0
20260506024548 0 200 1.6 0.0 0.00 0.00 0.00 85 1002.9
20260506024020 0 200 1.6 0.0 0.00 0.00 0.00 85 1002.9
20260506023531 0 200 3.2 0.0 0.00 0.00 0.00 85 1002.9
20260506023026 0 200 3.2 0.0 0.00 0.00 0.00 85 1002.8
20260506022545 0 200 3.2 0.0 0.00 0.00 0.00 85 1002.8
20260506022032 0 200 3.2 0.0 0.00 0.00 0.00 85 1002.8
20260506021538 0 200 3.2 0.0 0.00 0.00 0.00 85 1002.8
20260506021030 0 200 3.2 0.0 0.00 0.00 0.00 85 1002.8
20260506020543 0 200 1.6 0.0 0.00 0.00 0.00 85 1002.8
20260506020055 0 200 1.6 0.0 0.00 0.00 0.00 84 1002.8
20260506015545 0 200 1.6 0.0 0.00 0.00 0.00 84 1002.6
20260506015029 0 200 1.6 0.0 0.00 0.00 0.00 84 1002.6
20260506014544 0 200 1.6 0.0 0.00 0.00 0.00 84 1002.6
20260506014027 0 200 1.6 0.0 0.00 0.00 0.00 84 1002.5
20260506013534 0 200 1.6 0.0 0.00 0.00 0.00 84 1002.5
20260506013021 0 200 1.6 0.0 0.00 0.00 0.00 84 1002.4
20260506012532 0 200 1.6 0.0 0.00 0.00 0.00 83 1002.4
20260506012035 0 200 1.6 0.0 0.00 0.00 0.00 83 1002.4
20260506011541 0 200 1.6 0.0 0.00 0.00 0.00 82 1002.4
20260506011035 0 200 1.6 0.0 0.00 0.00 0.00 82 1002.2
20260506010545 0 200 1.6 0.0 0.00 0.00 0.00 82 1002.3
20260506010025 0 200 1.6 0.0 0.00 0.00 0.00 81 1002.1
20260506005600 0 200 1.6 0.0 0.00 0.00 0.00 80 1002.1
20260506005026 0 200 1.6 0.0 0.00 0.00 0.00 80 1002.1
20260506004540 0 200 1.6 0.0 0.00 0.00 0.00 80 1002.1
20260506004044 0 200 1.6 0.0 0.00 0.00 0.00 79 1001.9
20260506003535 0 200 3.2 0.0 0.00 0.00 0.00 79 1001.9
20260506003039 0 200 3.2 0.0 0.00 0.00 0.00 77 1001.9
20260506002523 0 202 3.2 0.0 0.00 0.00 0.00 77 1001.9
20260506002034 0 202 3.2 0.0 0.00 0.00 0.00 76 1001.9
20260506001523 0 202 1.6 0.0 0.00 0.00 0.00 75 1001.7
20260506001028 0 202 3.2 0.0 0.00 0.00 0.00 75 1001.7
20260506000543 0 202 3.2 0.0 0.00 0.00 0.00 74 1001.7
20260506000051 1 202 3.2 0.0 0.00 0.00 0.00 75 1001.6
20260505235547 1 202 1.6 0.0 0.00 0.00 0.00 75 1001.6
20260505235027 1 185 1.6 0.0 0.00 0.00 0.00 75 1001.6
20260505234608 1 185 1.6 0.0 0.00 0.00 0.00 75 1001.6
20260505234047 1 185 1.6 0.0 0.00 0.00 0.00 75 1001.5
20260505233530 1 185 0.0 0.0 0.00 0.00 0.00 75 1001.5
20260505233023 1 185 0.0 0.0 0.00 0.00 0.00 74 1001.4
20260505232528 1 185 0.0 0.0 0.00 0.00 0.00 75 1001.4
20260505232037 1 185 0.0 0.0 0.00 0.00 0.00 75 1001.4
20260505231530 1 185 1.6 0.0 0.00 0.00 0.00 76 1001.4
20260505231035 1 185 1.6 0.0 0.00 0.00 0.00 77 1001.4
20260505230544 1 185 1.6 0.0 0.00 0.00 0.00 77 1001.4
20260505230040 1 185 3.2 0.0 0.00 0.00 0.00 77 1001.4
20260505225526 1 185 4.8 0.0 0.00 0.00 0.00 78 1001.5
20260505225043 1 190 4.8 0.0 0.00 0.00 0.00 78 1001.5
20260505224527 1 199 3.2 0.0 0.00 0.00 0.00 78 1001.4
20260505224031 1 199 3.2 0.0 0.00 0.00 0.00 77 1001.4
20260505223535 1 200 4.8 0.0 0.00 0.00 0.00 77 1001.4
20260505223051 1 224 4.8 0.0 0.00 0.00 0.00 77 1001.4
20260505222537 1 209 4.8 0.0 0.00 0.00 0.00 77 1001.4
20260505222032 1 197 4.8 0.0 0.00 0.00 0.00 76 1001.4
20260505221533 1 200 4.8 0.0 0.00 0.00 0.00 76 1001.4
20260505221020 1 202 3.2 0.0 0.00 0.00 0.00 76 1001.3
20260505220534 1 197 4.8 0.0 0.00 0.00 0.00 76 1001.3
20260505220040 1 161 4.8 0.0 0.00 0.00 0.00 75 1001.3
20260505215544 1 182 4.8 0.0 0.00 0.00 0.00 75 1001.1
20260505215039 1 197 3.2 0.0 0.00 0.00 0.00 75 1001.1
20260505214523 1 182 4.8 0.0 0.00 0.00 0.00 74 1001.0
20260505214030 1 182 4.8 0.0 0.00 0.00 0.00 74 1001.0
20260505213542 1 187 3.2 0.0 0.00 0.00 0.00 74 1001.0
20260505213026 2 187 3.2 0.0 0.00 0.00 0.00 74 1001.0
20260505212532 2 192 4.8 0.0 0.00 0.00 0.00 73 1001.0
20260505212027 2 226 3.2 0.0 0.00 0.00 0.00 73 1001.0
20260505211536 2 190 3.2 0.0 0.00 0.00 0.00 72 1001.0
20260505211054 2 190 3.2 0.0 0.00 0.00 0.00 72 1000.9
20260505210521 2 214 4.8 0.0 0.00 0.00 0.00 72 1000.9
20260505210035 2 211 4.8 0.0 0.00 0.00 0.00 72 1000.8
20260505205523 2 186 4.8 0.0 0.00 0.00 0.00 72 1000.8
20260505205030 2 138 4.8 0.0 0.00 0.00 0.00 71 1000.8
20260505204538 2 178 3.2 0.0 0.00 0.00 0.00 70 1000.9
20260505204021 2 192 3.2 0.0 0.00 0.00 0.00 70 1000.8
20260505203529 2 190 4.8 0.0 0.00 0.00 0.00 70 1000.8
20260505203048 2 169 4.8 0.0 0.00 0.00 0.00 69 1000.8
20260505202532 2 152 4.8 0.0 0.00 0.00 0.00 69 1000.8
20260505202039 2 189 4.8 0.0 0.00 0.00 0.00 68 1000.8
20260505201556 2 194 4.8 0.0 0.00 0.00 0.00 67 1000.8
20260505201019 2 194 4.8 0.0 0.00 0.00 0.00 67 1000.7
20260505200547 2 194 4.8 0.0 0.00 0.00 0.00 67 1000.7
20260505200022 2 247 4.8 0.0 0.00 0.00 0.00 66 1000.7
20260505195523 2 183 4.8 0.0 0.00 0.00 0.00 65 1000.7
20260505195039 2 185 3.2 0.0 0.00 0.00 0.00 64 1000.7
20260505194550 3 186 3.2 0.0 0.00 0.00 0.00 63 1000.6
20260505194020 3 186 1.6 0.0 0.00 0.00 0.00 62 1000.6
20260505193536 3 186 1.6 0.0 0.00 0.00 0.00 62 1000.6
20260505193032 3 186 1.6 0.0 0.00 0.00 0.00 61 1000.6
20260505192521 3 186 1.6 0.0 0.00 0.00 0.00 61 1000.6
20260505192032 3 186 1.6 0.0 0.00 0.00 0.00 60 1000.6
20260505191531 3 186 1.6 0.0 0.00 0.00 0.00 59 1000.5
20260505191035 4 186 1.6 0.0 0.00 0.00 0.00 58 1000.5
20260505190524 4 186 1.6 0.0 0.00 0.00 0.00 58 1000.5
20260505190037 4 186 1.6 0.0 0.00 0.00 0.00 57 1000.5
20260505185521 5 186 3.2 0.0 0.00 0.00 0.00 56 1000.4
20260505185036 5 186 3.2 0.0 0.00 0.00 0.00 55 1000.4
20260505184544 5 187 1.6 0.0 0.00 0.00 0.00 55 1000.3
20260505184100 5 187 1.6 0.0 0.00 0.00 0.00 54 1000.3
20260505183527 5 187 3.2 0.0 0.00 0.00 0.00 53 1000.3
20260505183021 5 193 3.2 0.0 0.00 0.00 0.00 51 1000.3
20260505182529 6 197 3.2 0.0 0.00 0.00 0.00 51 1000.3
20260505182023 6 192 3.2 0.0 0.00 0.00 0.00 51 1000.3
20260505181527 6 209 3.2 0.0 0.00 0.00 0.00 50 1000.1
20260505181105 6 206 3.2 0.0 0.00 0.00 0.00 50 1000.1
20260505180552 6 206 3.2 0.0 0.00 0.00 0.00 49 1000.2
20260505180027 6 178 3.2 0.0 0.00 0.00 0.00 49 1000.0
20260505175533 6 206 3.2 0.0 0.00 0.00 0.00 48 1000.0
20260505175039 6 218 3.2 0.0 0.00 0.00 0.00 48 1000.0
20260505174524 7 238 4.8 0.0 0.00 0.00 0.00 47 999.9
20260505174042 7 192 3.2 0.0 0.00 0.00 0.00 47 999.9
20260505173527 7 227 3.2 0.0 0.00 0.00 0.00 47 999.9
20260505173030 7 203 4.8 0.0 0.00 0.00 0.00 47 999.8
20260505172042 7 179 4.8 0.0 0.00 0.00 0.00 45 999.8
20260505171526 8 223 4.8 0.0 0.00 0.00 0.00 42 999.7
20260505171031 8 214 3.2 0.0 0.00 0.00 0.00 42 999.7
20260505170548 8 204 3.2 0.0 0.00 0.00 0.00 41 999.7
20260505170056 8 199 4.8 0.0 0.00 0.00 0.00 39 999.6
20260505165522 8 214 6.4 0.0 0.00 0.00 0.00 40 999.6
20260505165032 8 244 6.4 0.0 0.00 0.00 0.00 39 999.6
20260505164525 8 200 4.8 0.0 0.00 0.00 0.00 39 999.5
20260505164027 9 199 4.8 0.0 0.00 0.00 0.00 38 999.5
20260505163522 9 202 3.2 0.0 0.00 0.00 0.00 38 999.5
20260505163037 9 257 4.8 0.0 0.00 0.00 0.00 39 999.5
20260505162525 9 299 6.4 0.0 0.00 0.00 0.00 38 999.4
20260505162026 9 227 6.4 0.0 0.00 0.00 0.00 37 999.4
20260505161530 9 237 6.4 0.0 0.00 0.00 0.00 37 999.3
20260505161046 10 180 4.8 0.0 0.00 0.00 0.00 36 999.3
20260505160533 10 207 4.8 0.0 0.00 0.00 0.00 36 999.3
20260505153037 10 228 11.3 0.0 0.00 0.00 0.00 33 999.2
20260505152525 9 255 9.7 0.0 0.00 0.00 0.00 33 999.1
20260505152030 9 272 11.3 0.0 0.00 0.00 0.00 35 999.1
20260505151525 9 266 11.3 0.0 0.00 0.00 0.00 32 999.1
20260505151032 9 269 11.3 0.0 0.00 0.00 0.00 32 999.1
20260505150521 9 247 11.3 0.0 0.00 0.00 0.00 32 999.1
20260505140523 10 235 14.5 0.0 0.00 0.00 0.00 35 998.7
20260505125038 10 305 11.3 0.0 0.00 0.00 0.00 33 998.2
20260505124545 10 250 9.7 0.0 0.00 0.00 0.00 36 998.0
20260505124029 10 240 8.0 0.0 0.00 0.00 0.00 36 998.0
20260505123526 10 206 9.7 0.0 0.00 0.00 0.00 36 998.0
20260505123029 10 255 9.7 0.0 0.00 0.00 0.00 35 997.9
20260505122536 10 264 11.3 0.0 0.00 0.00 0.00 39 997.9
20260505122025 10 316 14.5 0.0 0.00 0.00 0.00 40 997.9
20260505121543 10 254 16.1 0.0 0.00 0.00 0.00 37 997.7
20260505121039 10 264 12.9 0.0 0.00 0.00 0.00 35 997.7
20260505120526 10 310 9.7 0.0 0.00 0.00 0.00 39 997.7
20260505120030 10 203 14.5 0.0 0.00 0.00 0.00 39 997.7
20260505115541 10 264 11.3 0.0 0.00 0.00 0.00 35 997.6
20260505115026 10 209 11.3 0.0 0.00 0.00 0.00 41 997.6
20260505114535 10 289 12.9 0.0 0.00 0.00 0.00 36 997.6
20260505114021 10 227 14.5 0.0 0.00 0.00 0.00 36 997.5
20260505113602 10 245 12.9 0.0 0.00 0.00 0.00 34 997.5
20260505113028 10 288 9.7 0.0 0.00 0.00 0.00 36 997.2
20260505112556 10 223 11.3 0.0 0.00 0.00 0.00 36 997.2
20260505112031 10 240 12.9 0.0 0.00 0.00 0.00 33 997.2
20260505111534 11 265 9.7 0.0 0.00 0.00 0.00 34 997.2
20260505111035 10 237 6.4 0.0 0.00 0.00 0.00 38 997.2
20260505110529 10 221 8.0 0.0 0.00 0.00 0.00 37 997.2
20260505102022 -17 0.0 0.0 0.00 0.00 0.00 996.7
20260505101539 -17 0.0 0.0 0.00 0.00 0.00 996.7
20260505101030 -17 0.0 0.0 0.00 0.00 0.00 996.4
20260505100538 -17 0.0 0.0 0.00 0.00 0.00 996.4
20260505100030 -17 0.0 0.0 0.00 0.00 0.00 996.3
20260505095540 -17 0.0 0.0 0.00 0.00 0.00 996.3
20260505095030 -17 0.0 0.0 0.00 0.00 0.00 996.3
20260505094523 -17 0.0 0.0 0.00 0.00 0.00 996.2
20260505094034 -17 0.0 0.0 0.00 0.00 0.00 996.2
20260505093524 -17 0.0 0.0 0.00 0.00 0.00 996.2
20260505093038 -17 0.0 0.0 0.00 0.00 0.00 996.2